TimeMDT,TemperatureF,Dew PointF,Humidity,Sea Level PressureIn,VisibilityMPH,Wind Direction,Wind SpeedMPH,Gust SpeedMPH,PrecipitationIn,Events,Conditions,WindDirDegrees,DateUTC
12:15 AM,57.2,39.2,51,30.09,10.0,East,6.9,-,N/A,,Clear,90,2013-05-10 06:15:00
12:35 AM,57.2,39.2,51,30.10,10.0,ESE,3.5,-,N/A,,Clear,110,2013-05-10 06:35:00
12:55 AM,57.2,39.2,51,30.10,10.0,SE,4.6,-,N/A,,Clear,140,2013-05-10 06:55:00
1:15 AM,57.2,39.2,51,30.11,10.0,SE,9.2,-,N/A,,Clear,130,2013-05-10 07:15:00
1:35 AM,57.2,39.2,51,30.12,10.0,ESE,6.9,-,N/A,,Clear,120,2013-05-10 07:35:00
1:55 AM,55.4,39.2,54,30.12,10.0,East,10.4,-,N/A,,Clear,100,2013-05-10 07:55:00
2:15 AM,55.4,39.2,54,30.13,10.0,ESE,8.1,-,N/A,,Clear,110,2013-05-10 08:15:00
2:35 AM,53.6,39.2,58,30.13,10.0,East,4.6,-,N/A,,Clear,90,2013-05-10 08:35:00
2:55 AM,53.6,39.2,58,30.13,10.0,SE,8.1,-,N/A,,Clear,130,2013-05-10 08:55:00
3:15 AM,55.4,39.2,54,30.13,10.0,ESE,8.1,-,N/A,,Clear,120,2013-05-10 09:15:00
3:35 AM,55.4,39.2,54,30.14,10.0,ESE,6.9,-,N/A,,Clear,120,2013-05-10 09:35:00
3:55 AM,53.6,39.2,58,30.14,10.0,SE,5.8,-,N/A,,Clear,140,2013-05-10 09:55:00
4:15 AM,53.6,37.4,54,30.15,10.0,SSE,5.8,-,N/A,,Clear,160,2013-05-10 10:15:00
4:35 AM,53.6,37.4,54,30.15,10.0,SSE,4.6,-,N/A,,Clear,160,2013-05-10 10:35:00
4:55 AM,51.8,37.4,58,30.15,10.0,ESE,4.6,-,N/A,,Clear,110,2013-05-10 10:55:00
5:15 AM,48.2,37.4,66,30.15,10.0,Calm,Calm,-,N/A,,Clear,0,2013-05-10 11:15:00
5:35 AM,48.2,37.4,66,30.16,10.0,Calm,Calm,-,N/A,,Clear,0,2013-05-10 11:35:00
6:15 AM,46.4,37.4,71,30.17,10.0,Calm,Calm,-,N/A,,Clear,0,2013-05-10 12:15:00
6:35 AM,48.2,37.4,66,30.17,10.0,Calm,Calm,-,N/A,,Clear,0,2013-05-10 12:35:00
7:15 AM,51.8,39.2,62,30.19,10.0,Calm,Calm,-,N/A,,Clear,0,2013-05-10 13:15:00
7:35 AM,51.8,39.2,62,30.20,10.0,West,3.5,-,N/A,,Clear,260,2013-05-10 13:35:00
7:55 AM,55.4,41.0,58,30.20,10.0,Calm,Calm,-,N/A,,Clear,0,2013-05-10 13:55:00
8:15 AM,57.2,42.8,59,30.21,10.0,NE,4.6,-,N/A,,Clear,40,2013-05-10 14:15:00
8:35 AM,57.2,42.8,59,30.21,10.0,Calm,Calm,-,N/A,,Clear,0,2013-05-10 14:35:00
8:55 AM,60.8,44.6,55,30.21,10.0,Calm,Calm,-,N/A,,Clear,0,2013-05-10 14:55:00
9:15 AM,62.6,44.6,52,30.21,10.0,West,3.5,-,N/A,,Clear,280,2013-05-10 15:15:00
9:55 AM,66.2,44.6,46,30.22,10.0,North,3.5,-,N/A,,Clear,10,2013-05-10 15:55:00
10:15 AM,69.8,46.4,43,30.21,10.0,North,3.5,-,N/A,,Clear,350,2013-05-10 16:15:00
10:35 AM,69.8,46.4,43,30.21,10.0,NNW,3.5,-,N/A,,Clear,340,2013-05-10 16:35:00
12:55 PM,78.8,44.6,30,30.20,10.0,North,3.5,-,N/A,,Clear,350,2013-05-10 18:55:00
1:15 PM,78.8,44.6,30,30.19,10.0,North,4.6,-,N/A,,Clear,10,2013-05-10 19:15:00
1:55 PM,80.6,44.6,28,30.18,10.0,East,4.6,-,N/A,,Clear,80,2013-05-10 19:55:00
2:15 PM,82.4,46.4,28,30.17,10.0,NNE,4.6,-,N/A,,Clear,20,2013-05-10 20:15:00
2:35 PM,82.4,42.8,25,30.17,10.0,Calm,Calm,-,N/A,,Clear,0,2013-05-10 20:35:00
2:55 PM,82.4,44.6,26,30.16,10.0,ENE,4.6,-,N/A,,Clear,70,2013-05-10 20:55:00
3:15 PM,84.2,42.8,23,30.16,10.0,Calm,Calm,-,N/A,,Clear,0,2013-05-10 21:15:00
3:35 PM,82.4,42.8,25,30.15,10.0,SSW,3.5,-,N/A,,Clear,210,2013-05-10 21:35:00
4:35 PM,84.2,39.2,20,30.14,10.0,Calm,Calm,-,N/A,,Clear,0,2013-05-10 22:35:00
4:55 PM,84.2,39.2,20,30.13,10.0,West,9.2,-,N/A,,Clear,260,2013-05-10 22:55:00
5:15 PM,84.2,39.2,20,30.13,10.0,West,6.9,-,N/A,,Clear,280,2013-05-10 23:15:00
5:35 PM,84.2,37.4,19,30.12,10.0,NNW,5.8,-,N/A,,Clear,340,2013-05-10 23:35:00
5:55 PM,86.0,37.4,18,30.12,10.0,West,11.5,-,N/A,,Clear,280,2013-05-10 23:55:00
6:15 PM,84.2,37.4,19,30.12,10.0,West,10.4,-,N/A,,Clear,270,2013-05-11 00:15:00
6:35 PM,84.2,37.4,19,30.12,10.0,West,9.2,-,N/A,,Clear,280,2013-05-11 00:35:00
6:55 PM,84.2,37.4,19,30.11,10.0,West,11.5,-,N/A,,Clear,270,2013-05-11 00:55:00
7:15 PM,84.2,37.4,19,30.11,10.0,West,9.2,-,N/A,,Clear,280,2013-05-11 01:15:00
7:35 PM,82.4,37.4,20,30.11,10.0,WNW,8.1,-,N/A,,Clear,290,2013-05-11 01:35:00
7:55 PM,82.4,35.6,19,30.11,10.0,West,6.9,-,N/A,,Clear,270,2013-05-11 01:55:00
8:15 PM,82.4,35.6,19,30.12,10.0,WSW,5.8,-,N/A,,Clear,240,2013-05-11 02:15:00
8:35 PM,80.6,35.6,20,30.12,10.0,SW,4.6,-,N/A,,Clear,230,2013-05-11 02:35:00
8:55 PM,80.6,35.6,20,30.12,10.0,SW,3.5,-,N/A,,Clear,230,2013-05-11 02:55:00
9:15 PM,75.2,37.4,25,30.12,10.0,SSW,4.6,-,N/A,,Clear,210,2013-05-11 03:15:00
9:35 PM,75.2,37.4,25,30.13,10.0,SSW,4.6,-,N/A,,Clear,210,2013-05-11 03:35:00
9:55 PM,71.6,37.4,29,30.13,10.0,SSW,4.6,-,N/A,,Clear,210,2013-05-11 03:55:00
10:15 PM,71.6,37.4,29,30.14,10.0,Calm,Calm,-,N/A,,Clear,0,2013-05-11 04:15:00
10:35 PM,69.8,37.4,31,30.15,10.0,South,4.6,-,N/A,,Clear,180,2013-05-11 04:35:00
10:55 PM,66.2,41.0,40,30.15,10.0,South,4.6,-,N/A,,Clear,180,2013-05-11 04:55:00
11:15 PM,62.6,39.2,42,30.15,10.0,ENE,8.1,-,N/A,,Clear,70,2013-05-11 05:15:00
11:35 PM,62.6,41.0,45,30.15,10.0,East,8.1,-,N/A,,Clear,100,2013-05-11 05:35:00
11:55 PM,59.0,41.0,51,30.15,10.0,ESE,9.2,-,N/A,,Clear,120,2013-05-11 05:55:00